Simultaneous Nadir Overpasses (SNOs) Predictions

Prediction of SNOs between GOES-14 and NOAA-20 Satellite Orbit:

Table of predicted SNOs for the next 14.0 days since TLE Epoch: 9/14/2024
Index Date Time (GOES-14) GOES-14 Lat,Lon NOAA-20 Lat,Lon Distance(km) Time Diff (sec)
1 09/14/2024 20:34:59 0.03,-108.37 0.21,-107.47 101.93 80
2 09/16/2024 08:56:44 -0.03,-108.43 0.91,-112.74 490.41 80
3 09/17/2024 08:35:17 -0.03,-108.43 -0.08,-108.20 27.07 80
4 09/19/2024 20:38:22 0.03,-108.38 -0.09,-108.95 64.15 80
5 09/20/2024 20:22:14 0.03,-108.39 0.92,-104.40 453.91 80
6 09/22/2024 08:43:58 -0.03,-108.45 0.23,-109.67 138.03 80
7 09/23/2024 08:22:31 -0.03,-108.45 -0.79,-105.13 379.37 80
8 09/24/2024 20:44:22 0.03,-108.38 -0.40,-110.41 230.62 80
9 09/25/2024 20:28:14 0.03,-108.39 0.57,-105.86 287.31 80
10 09/27/2024 08:49:58 -0.04,-108.46 0.55,-111.13 303.76 80
